CZ-6A DEB, 60902

Orbit data source: Space-Track

CZ-6A DEB, 60902 is space debris in LEO originally from a launch on Tue, 06 Aug 2024 UTC launched from the Taiyaun Space Center, China (TSC). Debris objects in space refer to the collection of defunct objects orbiting the Earth. Examples of debris include non-operational satellites, rocket bodies, and fragments generated from explosions, collisions, or faulty payload assembly.

Loading next visibility...
Identifier
60902, 2024-140LH
Orbit
LEO
Country
Flag of CNCN / PRC
Related business
Manufacturer
SAST
Mission
Spacecraft
Bus & Motor
Unknown
Mass
Unknown
Launch date (UTC)
2024-08-06 (2 years ago)
Launch vehicle
Unknown
Launch site
Taiyaun Space Center, China (TSC)
Object type
Payload
Rocket body
Debris
Shape & HBR
Unknown shape, 0.2 m
Radar Cross Section
Medium (>0.1 m² and <1 m²)

Expand to show TLE details & history
Last TLE update: 18 hours ago

TLE from 18 hours ago
0 CZ-6A DEB
1 60902U 24140LH  26171.21924322  .00000904  00000-0  18862-3 0  9991
2 60902  89.0339 272.6153 0113130 255.6690 103.1938 14.55126244 97464
Epoch: 2026-06-20T05:15Z
TLE epoch observation values (Epoch: 2026-06-20T05:15:42.614Z)
Latitude
-0.00004°
Longitude
-74.74927°
Altitude
731.219 km
Speed
7.479 km/s
True Right ascension
18h 10m 27s
True Declination
0° 00' 00"
Sunlit
Object was in full shadow at epoch
Visualization orbit readout
Latitude
Unknown
Longitude
Unknown
Altitude
Unknown
Speed
Unknown
Apparent Right ascension
Unknown
Apparent Declination
Unknown
Sunlit
N/A
Visualization observer readout
Local Sidereal Time
10:17:56
Azimuth
Unknown
Elevation
Unknown
Doppler factor
Unknown
Orbital elements
Apogee altitude
785.996 km
Perigee altitude
625.714 km
Semi-major axis
7,083.992 km
Eccentricity
0.01131
Inclination
89.0339°
RAAN
272.6153°
Arg. of periapsis
255.669°
True anomaly
104.45179°
Mean anomaly
103.1938°
Eccentric anomaly
103.82321°
Mean motion
3.64021 °/min
Orbital period
98.9 mins
BSTAR
0.00018862
Loading maneuver chart data...
Computing Atmospheric mass density...
Loading historical data...
Loading historical data...
Loading historical data...
Loading historical data...
Loading historical data...
Loading historical data...
Loading historical data...

Documentation

Showing up to 5 results
|